Weather History for KAZO - February, 2013

Change the Weather History Date:

Thursday, February 7, 2013

  Actual Average Record
Temperature  
Mean Temperature 34 °F 25 °F  
Max Temperature 40 °F 32 °F - ()
Min Temperature 27 °F 19 °F - ()
Degree Days  
Heating Degree Days 31 40  
Month to date heating degree days 323 280  
Since 1 July heating degree days 3774 3988  
Cooling Degree Days 0 0  
Month to date cooling degree days 0 0  
Year to date cooling degree days 0 0  
Moisture  
Dew Point 25 °F    
Average Humidity 78    
Maximum Humidity 96    
Minimum Humidity 59    
Precipitation  
Precipitation 0.25 in 0.04 in - ()
Month to date precipitation 0.28 0.29  
Year to date precipitation 3.68 2.08  
Sea Level Pressure  
Sea Level Pressure 30.03 in    
Wind  
Wind Speed 6 mph (ESE)    
Max Wind Speed 12 mph    
Max Gust Speed 16 mph    
Visibility 4 miles    
Events Fog , Snow    
T = Trace of Precipitation, MM = Missing Value Source: NWS Daily Summary

Daily Weather History Graph

Daily Weather History Graph

Search for Another Location

Airport or City:

Trip Planner

Search our weather history database for the weather conditions in past years. The results will help you decide how hot, cold, wet, or windy it might be!

Date:

Astronomy

Feb. 07, 2013 Rise Set
Actual Time 7:48 AM EST 6:04 PM EST
Civil Twilight 7:19 AM EST 6:34 PM EST
Nautical Twilight 6:46 AM EST 7:07 PM EST
Astronomical Twilight 6:13 AM EST 7:39 PM EST
Moon 5:29 AM EST (2/7) 3:26 PM EST (2/7)
Length of Visible Light 11h 14m
Length of Day
10h 16m
Waning Crescent, 9% of the Moon is Illuminated
Feb 7
Waning Crescent
Feb 10
New
Feb 17
First Quarter
Feb 25
Full
Mar 4
Last Quarter

Hourly Weather History & Observations

Time (EST) Temp. Windchill Dew Point Humidity Pressure Visibility Wind Dir Wind Speed Gust Speed Precip Events Conditions
12:53 AM 28.0 °F 20.8 °F 19.0 °F 69% 30.21 in 8.0 mi SE 6.9 mph - N/A   Overcast
1:53 AM 28.0 °F - 19.0 °F 69% 30.22 in 8.0 mi Calm Calm - N/A   Overcast
2:53 AM 28.0 °F 24.2 °F 19.0 °F 69% 30.21 in 8.0 mi East 3.5 mph - N/A   Overcast
3:53 AM 27.0 °F 20.5 °F 19.9 °F 75% 30.20 in 7.0 mi East 5.8 mph - N/A   Overcast
4:53 AM 27.0 °F 19.5 °F 19.9 °F 75% 30.19 in 7.0 mi SE 6.9 mph - N/A   Clear
5:53 AM 27.0 °F 20.5 °F 19.9 °F 75% 30.19 in 6.0 mi SE 5.8 mph - N/A   Haze
6:53 AM 28.0 °F 20.0 °F 21.0 °F 75% 30.17 in 6.0 mi SE 8.1 mph - N/A   Haze
7:53 AM 27.0 °F 19.5 °F 21.0 °F 78% 30.18 in 5.0 mi SSE 6.9 mph - N/A   Haze
8:53 AM 28.0 °F 21.7 °F 21.0 °F 75% 30.18 in 4.0 mi South 5.8 mph - N/A   Haze
9:53 AM 28.4 °F 22.2 °F 21.2 °F 74% 30.12 in 4.0 mi SE 5.8 mph - N/A   Haze
10:53 AM 30.0 °F 21.7 °F 23.0 °F 75% 30.13 in 5.0 mi SE 9.2 mph - N/A   Haze
11:53 AM 32.0 °F 25.6 °F 23.0 °F 69% 30.11 in 4.0 mi SE 6.9 mph - N/A   Haze
12:53 PM 33.1 °F 27.7 °F 24.1 °F 70% 30.08 in 4.0 mi East 5.8 mph - N/A   Haze
1:53 PM 36.0 °F 29.6 °F 25.0 °F 64% 30.04 in 5.0 mi East 8.1 mph - N/A   Haze
2:53 PM 37.9 °F 32.7 °F 26.1 °F 62% 29.99 in 5.0 mi East 6.9 mph - N/A   Haze
3:53 PM 39.0 °F 34.8 °F 27.0 °F 62% 29.97 in 6.0 mi East 5.8 mph - N/A   Haze
4:53 PM 39.9 °F 37.8 °F 28.0 °F 63% 29.94 in 6.0 mi East 3.5 mph - N/A   Haze
5:53 PM 39.0 °F 34.8 °F 28.9 °F 67% 29.92 in 6.0 mi East 5.8 mph - N/A   Haze
6:53 PM 37.9 °F 33.5 °F 28.0 °F 68% 29.91 in 7.0 mi ESE 5.8 mph - N/A   Overcast
7:53 PM 37.0 °F 32.4 °F 28.0 °F 70% 29.91 in 6.0 mi East 5.8 mph - N/A   Haze
8:26 PM 37.4 °F 34.9 °F 28.4 °F 70% 29.88 in 1.0 mi ESE 3.5 mph - 0.00 in Snow Light Snow
8:53 PM 34.0 °F - 32.0 °F 92% 29.91 in 0.5 mi Calm Calm - 0.02 in Fog , Snow Snow
9:03 PM 33.8 °F 29.6 °F 32.0 °F 93% 29.87 in 0.2 mi East 4.6 mph - 0.02 in Fog , Snow Heavy Snow
9:36 PM 33.8 °F 29.6 °F 32.0 °F 93% 29.86 in 0.2 mi East 4.6 mph - 0.09 in Fog , Snow Heavy Snow
9:53 PM 33.1 °F 27.7 °F 32.0 °F 96% 29.89 in 0.2 mi East 5.8 mph - 0.12 in Fog , Snow Heavy Snow
10:10 PM 33.8 °F 26.4 °F 32.0 °F 93% 29.85 in 0.5 mi East 9.2 mph - 0.03 in Fog , Snow Snow
10:53 PM 32.0 °F 27.5 °F 30.9 °F 96% 29.86 in 0.8 mi Variable 4.6 mph - 0.08 in Snow Light Snow
11:53 PM 32.0 °F 27.5 °F 30.9 °F 96% 29.85 in 1.0 mi ENE 4.6 mph - 0.03 in Snow Light Snow